This is the latest recevied weather packets stored in our database for station/object KR4KUV. If no packets are shown the sender has not sent any weather packets the latest 10 day(s).
| Time | Temp. | Humidity | Pressure | Rain* | Wind** | Luminosity | Snow |
|---|---|---|---|---|---|---|---|
| 1787681827 | 29.44° C | 50% | 1020.1 hPa | 0 mm | - | 724 W/m² | - |
| 1787681521 | 28.89° C | 56% | 1020 hPa | 0 mm | - | 727 W/m² | - |
| 1787681216 | 28.89° C | 52% | 1020.2 hPa | 0 mm | - | 730 W/m² | - |
| 1787680911 | 28.89° C | 52% | 1020.2 hPa | 0 mm | - | 732 W/m² | - |
| 1787680605 | 28.89° C | 53% | 1020.3 hPa | 0 mm | - | 733 W/m² | - |
| 1787680305 | 28.89° C | 56% | 1020.4 hPa | 0 mm | - | 736 W/m² | - |
| 1787680004 | 28.89° C | 53% | 1020.4 hPa | 0 mm | - | 735 W/m² | - |
| 1787679703 | 28.89° C | 52% | 1020.6 hPa | 0 mm | - | 733 W/m² | - |
| 1787679398 | 28.89° C | 52% | 1020.5 hPa | 0 mm | - | 733 W/m² | - |
| 1787679095 | 28.89° C | 50% | 1020.6 hPa | 0 mm | - | 732 W/m² | - |
| 1787678794 | 28.33° C | 52% | 1020.7 hPa | 0 mm | - | 732 W/m² | - |
| 1787678494 | 28.33° C | 50% | 1020.7 hPa | 0 mm | - | 730 W/m² | - |
| 1787678184 | 28.33° C | 54% | 1021.1 hPa | 0 mm | - | 727 W/m² | - |
| 1787677879 | 28.33° C | 53% | 1021 hPa | 0 mm | - | 724 W/m² | - |
| 1787677579 | 28.33° C | 53% | 1020.9 hPa | 0 mm | - | 724 W/m² | - |
| 1787677273 | 27.78° C | 55% | 1020.8 hPa | 0 mm | - | 721 W/m² | - |
| 1787676972 | 27.22° C | 54% | 1021 hPa | 0 mm | - | 714 W/m² | - |
| 1787676668 | 27.78° C | 56% | 1021.2 hPa | 0 mm | - | 711 W/m² | - |
| 1787676364 | 27.78° C | 57% | 1021.2 hPa | 0 mm | - | 705 W/m² | - |
| 1787676060 | 27.22° C | 57% | 1021.3 hPa | 0 mm | - | 700 W/m² | - |
| 1787675755 | 26.67° C | 60% | 1021.2 hPa | 0 mm | - | 696 W/m² | - |
| 1787675450 | 26.11° C | 63% | 1021.5 hPa | 0 mm | - | 690 W/m² | - |
| 1787675149 | 26.67° C | 58% | 1021.4 hPa | 0 mm | - | 682 W/m² | - |
| 1787674849 | 26.67° C | 56% | 1021.4 hPa | 0 mm | - | 677 W/m² | - |
| 1787674544 | 26.67° C | 60% | 1021.7 hPa | 0 mm | - | 668 W/m² | - |
* Rain latest hour (hover to see other rain measurements)
** Current wind speed in m/s (hover to see current wind gust speed)